Tracking 19489 objects as of 23-Jan-2019
HD Live streaming from Space Station
objects crossing your sky now

FENGYUN 1C DEB

Track FENGYUN 1C DEB now!
10-day predictions


NORAD ID: 32124
Int'l Code: 1999-025CRS
Perigee: 462.8 km
Apogee: 562.7 km
Inclination: 99.0 °
Period: 94.7 minutes
Semi major axis: 6883 km
RCS: 0.0086 m2 (small)
Launch date: May 10, 1999
Source: People's Republic of China (PRC)
Launch site: Taiyaun Space Center, China (TSC)

Note: This is SATELLITE DEBRIS
aabbcc
Your satellite tracking list
Your tracking list is empty




NASA's NSSDC Master Catalog

Two Line Element Set (TLE):
1 32124U 99025CRS 19021.79784465 +.00005369 +00000-0 +23627-3 0  9996
2 32124 099.0174 229.7334 0072569 266.5734 092.7193 15.20079344301578
Source of the keplerian elements: AFSPC